Printer-friendly version

IAU Minor Planet Center

Minor Planet Center

MPEC 2007-W24 : 2007 WL3

The following Minor Planet Electronic Circular may be linked-to from your own Web pages, but must not otherwise be redistributed electronically.


Read MPEC 2007-W23 Read MPEC 2007-W25


M.P.E.C. 2007-W24                                Issued 2007 Nov. 19, 12:21 UT

     The Minor Planet Electronic Circulars contain information on unusual
         minor planets and routine data on comets.  They are published
   on behalf of Commission 20 of the International Astronomical Union by the
          Minor Planet Center, Smithsonian Astrophysical Observatory,
                          Cambridge, MA 02138, U.S.A.

             Prepared using the Tamkin Foundation Computer Network

                              MPC@CFA.HARVARD.EDU
          URL http://www.cfa.harvard.edu/iau/mpc.html  ISSN 1523-6714

                                   2007 WL3

Observations:
     K07W03L* C2007 11 17.24893 03 13 32.18 +22 36 41.7          19.4   EW024704
     K07W03L  C2007 11 17.26167 03 13 21.48 +22 40 21.9          19.8   EW024704
     K07W03L  C2007 11 17.27438 03 13 10.98 +22 44 00.9          20.2   EW024704
     K07W03L  C2007 11 17.28710 03 13 00.37 +22 47 37.4          19.7   EW024704
     K07W03L  C2007 11 17.29982 03 12 49.89 +22 51 14.1          19.8   EW024704
     K07W03L  C2007 11 18.15738 03 02 36.60 +26 26 42.0          20.2 V EW024G96
     K07W03L  C2007 11 18.16286 03 02 32.71 +26 27 56.7          19.7 V EW024G96
     K07W03L  C2007 11 18.16826 03 02 28.86 +26 29 10.9          18.9 V EW024G96
     K07W03L  C2007 11 18.17369 03 02 25.22 +26 30 22.6          19.4 V EW024G96
     K07W03L 5C2007 11 18.22442 03 01 50.84 +26 41 33.8          19.5 R EW024673
     K07W03L 5C2007 11 18.22627 03 01 49.60 +26 41 57.7                 EW024673
     K07W03L 5C2007 11 18.23264 03 01 45.16 +26 43 21.8                 EW024673
     K07W03L 5C2007 11 18.23866 03 01 41.10 +26 44 40.1                 EW024673
     K07W03L  C2007 11 18.27390 03 01 16.18 +26 52 26.3          20.6 R EW024651
     K07W03L  C2007 11 18.27867 03 01 12.84 +26 53 29.0          19.9 R EW024651
     K07W03L  C2007 11 18.28056 03 01 11.53 +26 53 53.3          20.2 R EW024651
     K07W03L  C2007 11 19.22318 02 51 55.65 +29 53 32.3          20.2 V EW024G96
     K07W03L  C2007 11 19.22388 02 51 55.22 +29 53 39.9          19.9 V EW024G96
     K07W03L  C2007 11 19.22459 02 51 54.82 +29 53 46.6          19.5 V EW024G96
     K07W03L  C2007 11 19.22529 02 51 54.39 +29 53 54.5          19.9 V EW024G96

Observer details:
651 Grasslands Observatory, Tucson.  Observer J. E. McGaha.  0.62-m f/5.1
    reflector + CCD.
673 Table Mountain Observatory, Wrightwood.  Observer J. Young.  0.61-m f/16
    Cassegrain + CCD.
704 Lincoln Laboratory ETS, New Mexico.  Observers M. Bezpalko, D. Torres,
    R. Kracke, G. Spitz, J. Kistler.  Measurers J. Stuart, S. Scruggs.  1.0-m
    f/2.15 reflector + CCD.
G96 Mt. Lemmon Survey.  Observer A. D. Grauer.  Measurers E. C. Beshore,
    A. Boattini, G. J. Garradd, A. R. Gibbs, A. D. Grauer, R. E. Hill,
    R. A. Kowalski, S. M. Larson, R. H. McNaught.  1.5-m reflector + CCD.

Orbital elements:
2007 WL3                                                 Earth MOID = 0.0458 AU
Epoch 2007 Oct. 27.0 TT = JDT 2454400.5                 MPC
M  14.21517              (2000.0)            P               Q
n   0.42206819     Peri.  273.44397     +0.73348382     +0.54992987
a   1.7601417      Node    53.62989     -0.23017024     +0.75394806
e   0.6122404      Incl.   29.74326     -0.63954918     +0.35935978
P   2.34           H   24.2           G   0.15           U   9
Residuals in seconds of arc
071117 704  0.4+  0.9-    071118 G96  1.9-  1.1+    071118 651  0.5-  0.9+
071117 704  0.6-  0.2-    071118 G96  0.4-  0.2-    071118 651  0.7-  0.8+
071117 704  0.4+  0.7+    071118 673  0.2+  0.2+    071119 G96  0.4+  0.3-
071117 704  0.3-  0.0     071118 673  0.6+  0.4-    071119 G96  0.0   0.2+
071117 704  0.4+  0.6+    071118 673  0.2-  0.3-    071119 G96  0.2+  0.3-
071118 G96  1.2+  1.0-    071118 673  0.8+  1.3-    071119 G96  0.2-  0.5+
071118 G96  0.3-  0.3-    071118 651  0.5+  0.1-

Ephemeris:
2007 WL3                 a,e,i = 1.76, 0.61, 30                  q = 0.6825
Date    TT    R. A. (2000) Decl.     Delta      r     Elong.  Phase     V
2007 11 16    03 32.42   +15 23.7    0.0673   1.056   176.1     3.6    18.8
2007 11 17    03 16.91   +21 22.7    0.0776   1.066   176.5     3.3    19.1
2007 11 18    03 04.31   +25 51.1    0.0887   1.076   170.8     8.5    19.7
2007 11 19    02 53.96   +29 14.8    0.101    1.086   166.3    12.4    20.1
2007 11 20    02 45.37   +31 52.5    0.113    1.096   162.7    15.6    20.5
2007 11 21    02 38.17   +33 56.9    0.125    1.106   159.7    18.1    20.8
2007 11 22    02 32.08   +35 36.7    0.138    1.116   157.2    20.1    21.1
2007 11 23    02 26.89   +36 58.0    0.151    1.126   155.0    21.8    21.4
2007 11 24    02 22.45   +38 05.2    0.165    1.137   153.1    23.2    21.7
2007 11 25    02 18.63   +39 01.3    0.178    1.147   151.4    24.3    21.9
2007 11 26    02 15.34   +39 48.6    0.191    1.157   149.9    25.3    22.1

Timothy B. Spahr             (C) Copyright 2007 MPC           M.P.E.C. 2007-W24

Read MPEC 2007-W23 Read MPEC 2007-W25


Our Web policy. Index to the CBAT/MPC/ICQ pages.


Valid HTML 4.01!